• In Romania
  • List of Countries
  • For 7 days
  • Water Temperature
  • Satellite Maps
  • Weather Map
  • Weather Widgets
  • user-avatar
    Login

    Hourly Weather Prutz

    Today, 22 February, Wednesday

    Time Temperature Precipitation Wind Pressure Humidity
    00:00 0°C° 0.2 mm 1 mps 631 mmHg 98%
    01:00 -1°C° 0.2 mm 1 mps 631 mmHg 98%
    02:00 -1°C° 0.1 mm 1 mps 631 mmHg 98%
    03:00 -2°C° 0.1 mm 1 mps 630 mmHg 98%
    04:00 -2°C° 0.1 mm 1 mps 630 mmHg 98%
    05:00 -2°C° 0 mm 1 mps 630 mmHg 98%
    06:00 -2°C° 0 mm 1 mps 630 mmHg 98%
    07:00 -2°C° 0 mm 1 mps 629 mmHg 97%
    08:00 0°C° 0 mm 1 mps 630 mmHg 97%
    09:00 +2°C° 0 mm 1 mps 631 mmHg 96%
    10:00 +4°C° 0 mm 1 mps 632 mmHg 95%
    11:00 +5°C° 0 mm 1 mps 632 mmHg 95%
    12:00 +5°C° 0 mm 1 mps 632 mmHg 95%
    13:00 +5°C° 0 mm 2 mps 632 mmHg 95%
    14:00 +6°C° 0 mm 1 mps 631 mmHg 95%
    15:00 +5°C° 0 mm 1 mps 631 mmHg 96%
    16:00 +5°C° 0 mm 1 mps 631 mmHg 96%
    17:00 +2°C° 0 mm 2 mps 631 mmHg 96%
    18:00 +1°C° 0 mm 2 mps 630 mmHg 96%
    19:00 -2°C° 0 mm 2 mps 630 mmHg 95%
    20:00 -2°C° 0 mm 2 mps 630 mmHg 93%
    21:00 -3°C° 0 mm 2 mps 630 mmHg 90%
    22:00 -3°C° 0 mm 2 mps 629 mmHg 87%
    23:00 -3°C° 0 mm 2 mps 629 mmHg 86%

    Tomorrow, 23 February, Thursday

    Time Temperature Precipitation Wind Pressure Humidity
    00:00 -4°C° 0 mm 2 mps 629 mmHg 85%
    01:00 -4°C° 0 mm 2 mps 629 mmHg 84%
    02:00 -4°C° 0 mm 2 mps 629 mmHg 84%
    03:00 -4°C° 0 mm 2 mps 629 mmHg 84%
    04:00 -4°C° 0 mm 2 mps 628 mmHg 83%
    05:00 -4°C° 0 mm 2 mps 628 mmHg 83%
    06:00 -4°C° 0 mm 2 mps 628 mmHg 82%
    07:00 -4°C° 0 mm 2 mps 628 mmHg 81%
    08:00 -2°C° 0 mm 2 mps 628 mmHg 82%
    09:00 +2°C° 0 mm 2 mps 629 mmHg 84%
    10:00 +4°C° 0 mm 2 mps 629 mmHg 85%
    11:00 +5°C° 0 mm 2 mps 629 mmHg 86%
    12:00 +5°C° 0 mm 2 mps 629 mmHg 87%
    13:00 +6°C° 0 mm 2 mps 628 mmHg 87%
    14:00 +6°C° 0 mm 2 mps 628 mmHg 89%
    15:00 +5°C° 0 mm 2 mps 627 mmHg 92%
    16:00 +5°C° 0 mm 2 mps 627 mmHg 94%
    17:00 +4°C° 0 mm 2 mps 626 mmHg 94%
    18:00 +2°C° 0 mm 2 mps 626 mmHg 95%
    19:00 +1°C° 0 mm 2 mps 626 mmHg 96%
    20:00 -1°C° 0 mm 2 mps 626 mmHg 95%
    21:00 -1°C° 0 mm 2 mps 626 mmHg 94%
    22:00 -2°C° 0 mm 2 mps 625 mmHg 94%
    23:00 -2°C° 0.1 mm 2 mps 625 mmHg 93%

    Day after tomorrow, 24 February, Friday

    Time Temperature Precipitation Wind Pressure Humidity
    00:00 -2°C° 0.1 mm 2 mps 625 mmHg 93%
    01:00 -2°C° 0.1 mm 2 mps 625 mmHg 93%
    02:00 -2°C° 0.5 mm 2 mps 625 mmHg 94%
    03:00 -2°C° 0.5 mm 2 mps 625 mmHg 94%
    04:00 -1°C° 0.5 mm 2 mps 625 mmHg 95%
    05:00 -1°C° 1.1 mm 2 mps 625 mmHg 96%
    06:00 0°C° 1.1 mm 1 mps 625 mmHg 96%
    07:00 0°C° 1.1 mm 1 mps 626 mmHg 96%
    08:00 0°C° 0.9 mm 1 mps 626 mmHg 96%
    09:00 -2°C° 0.9 mm 2 mps 626 mmHg 95%
    10:00 -2°C° 0.9 mm 2 mps 627 mmHg 95%
    11:00 -2°C° 0.5 mm 2 mps 627 mmHg 94%
    12:00 -2°C° 0.5 mm 2 mps 627 mmHg 93%
    13:00 -2°C° 0.5 mm 2 mps 627 mmHg 93%
    14:00 -2°C° 0.3 mm 2 mps 627 mmHg 93%
    15:00 -2°C° 0.3 mm 2 mps 627 mmHg 93%
    16:00 -2°C° 0.3 mm 2 mps 627 mmHg 93%
    17:00 -3°C° 0.2 mm 2 mps 627 mmHg 94%
    18:00 -4°C° 0.2 mm 2 mps 627 mmHg 95%
    19:00 -5°C° 0.2 mm 2 mps 628 mmHg 96%
    20:00 -5°C° 0.3 mm 2 mps 628 mmHg 96%
    21:00 -6°C° 0.3 mm 2 mps 629 mmHg 96%
    22:00 -6°C° 0.3 mm 2 mps 629 mmHg 96%
    23:00 -7°C° 0.1 mm 2 mps 630 mmHg 96%

    25 February, Saturday

    Time Temperature Precipitation Wind Pressure Humidity
    00:00 -7°C° 0.1 mm 1 mps 630 mmHg 96%
    01:00 -7°C° 0.1 mm 1 mps 630 mmHg 97%
    02:00 -8°C° 0 mm 1 mps 630 mmHg 97%
    03:00 -9°C° 0 mm 1 mps 630 mmHg 96%
    04:00 -10°C° 0 mm 1 mps 630 mmHg 96%
    05:00 -10°C° 0 mm 1 mps 630 mmHg 96%
    06:00 -10°C° 0 mm 1 mps 630 mmHg 96%
    07:00 -11°C° 0 mm 1 mps 630 mmHg 95%
    08:00 -8°C° 0 mm 1 mps 631 mmHg 92%
    09:00 -4°C° 0 mm 1 mps 633 mmHg 89%
    10:00 -1°C° 0 mm 1 mps 634 mmHg 86%
    11:00 0°C° 0 mm 1 mps 634 mmHg 86%
    12:00 +1°C° 0 mm 0 mps 634 mmHg 86%
    13:00 +2°C° 0 mm 0 mps 634 mmHg 86%
    14:00 +2°C° 0 mm 0 mps 634 mmHg 88%
    15:00 +2°C° 0 mm 0 mps 634 mmHg 89%
    16:00 +2°C° 0 mm 0 mps 634 mmHg 91%
    17:00 0°C° 0 mm 0 mps 633 mmHg 92%
    18:00 -2°C° 0 mm 1 mps 632 mmHg 92%
    19:00 -4°C° 0 mm 1 mps 631 mmHg 92%
    20:00 -4°C° 0 mm 1 mps 631 mmHg 89%
    21:00 -4°C° 0 mm 1 mps 631 mmHg 86%
    22:00 -3°C° 0 mm 1 mps 632 mmHg 82%
    23:00 -3°C° 0 mm 1 mps 632 mmHg 81%

    26 February, Sunday

    Time Temperature Precipitation Wind Pressure Humidity
    00:00 -4°C° 0 mm 2 mps 632 mmHg 81%
    01:00 -4°C° 0 mm 2 mps 632 mmHg 80%
    02:00 -2°C° 0 mm 1 mps 632 mmHg 80%
    03:00 -2°C° 0 mm 1 mps 631 mmHg 80%
    04:00 -2°C° 0 mm 1 mps 631 mmHg 80%
    05:00 -2°C° 0 mm 1 mps 631 mmHg 79%
    06:00 -2°C° 0 mm 1 mps 632 mmHg 78%
    07:00 -1°C° 0 mm 1 mps 632 mmHg 77%
    08:00 +1°C° 0 mm 1 mps 633 mmHg 81%
    09:00 +3°C° 0 mm 1 mps 634 mmHg 84%
    10:00 +5°C° 0 mm 1 mps 635 mmHg 88%
    11:00 +5°C° 0 mm 1 mps 635 mmHg 88%
    12:00 +6°C° 0 mm 1 mps 635 mmHg 88%
    13:00 +7°C° 0 mm 1 mps 635 mmHg 88%
    14:00 +5°C° 0 mm 0 mps 634 mmHg 89%
    15:00 +5°C° 0 mm 0 mps 634 mmHg 91%
    16:00 +5°C° 0 mm 0 mps 634 mmHg 93%
    17:00 +2°C° 0 mm 0 mps 633 mmHg 94%
    18:00 +1°C° 0 mm 1 mps 632 mmHg 95%
    19:00 -2°C° 0 mm 1 mps 631 mmHg 95%
    20:00 -1°C° 0 mm 1 mps 631 mmHg 94%
    21:00 -1°C° 0 mm 1 mps 632 mmHg 92%
    22:00 -2°C° 0 mm 2 mps 632 mmHg 91%
    23:00 -2°C° 0 mm 2 mps 632 mmHg 91%

    27 February, Monday

    Time Temperature Precipitation Wind Pressure Humidity
    00:00 -2°C° 0 mm 2 mps 632 mmHg 91%
    01:00 -2°C° 0 mm 2 mps 632 mmHg 92%
    02:00 -2°C° 0 mm 2 mps 632 mmHg 91%
    03:00 -2°C° 0 mm 2 mps 632 mmHg 91%
    04:00 -2°C° 0 mm 2 mps 631 mmHg 90%
    05:00 -3°C° 0 mm 2 mps 631 mmHg 90%
    06:00 -3°C° 0 mm 2 mps 631 mmHg 89%
    07:00 -3°C° 0 mm 2 mps 631 mmHg 88%
    08:00 -1°C° 0 mm 2 mps 632 mmHg 88%
    09:00 +2°C° 0 mm 2 mps 633 mmHg 88%
    10:00 +4°C° 0 mm 2 mps 633 mmHg 87%
    11:00 +5°C° 0 mm 2 mps 633 mmHg 86%
    12:00 +6°C° 0 mm 2 mps 633 mmHg 86%
    13:00 +7°C° 0 mm 2 mps 632 mmHg 85%
    14:00 +6°C° 0 mm 2 mps 632 mmHg 87%
    15:00 +6°C° 0 mm 2 mps 631 mmHg 89%
    16:00 +6°C° 0 mm 2 mps 631 mmHg 91%
    17:00 +4°C° 0 mm 2 mps 631 mmHg 92%
    18:00 +2°C° 0 mm 2 mps 630 mmHg 93%
    19:00 +1°C° 0 mm 2 mps 630 mmHg 95%
    20:00 -1°C° 0 mm 2 mps 630 mmHg 94%
    21:00 -1°C° 0 mm 2 mps 630 mmHg 93%
    22:00 -1°C° 0 mm 2 mps 630 mmHg 92%
    23:00 -2°C° 0 mm 2 mps 630 mmHg 92%
    Show more